AAL3 KJFK-KLAX

Flight info

Callsign AAL3
Flight time N/A
Altitude 38000
Route RBV Q430 AIR J80 FYLLS KELLY JAAVE J80 MCI J24 SLN J102 ALS J44 RSK J64 TBC JASSE Q90 DNERO ANJLL4
Aircraft B772/H-SDE2E3FGHIJ5LORVWXY/LB1D1

Departure

Time N/A
Airport John F. Kennedy International Airport (KJFK)

Arrival

Time 2026-04-25 23:36
Airport Los Angeles International Airport (KLAX)
Time Latitude Longitude Altitude Speed Heading
2026-04-25 22:58 35.16924 -114.51911 37695 ft 397 kts 250°
2026-04-25 22:58 35.14754 -114.58138 37715 ft 399 kts 250°
2026-04-25 22:59 35.12570 -114.64394 37721 ft 401 kts 250°
2026-04-25 22:59 35.10388 -114.70687 37718 ft 402 kts 250°
2026-04-25 23:00 35.08218 -114.76951 37707 ft 403 kts 253°
2026-04-25 23:00 35.06031 -114.83238 37728 ft 401 kts 250°
2026-04-25 23:01 35.03850 -114.89494 37742 ft 400 kts 250°
2026-04-25 23:01 35.01413 -114.95609 37757 ft 402 kts 246°
2026-04-25 23:02 34.98748 -115.01615 37760 ft 402 kts 245°
2026-04-25 23:02 34.96098 -115.07620 37750 ft 402 kts 246°
2026-04-25 23:03 34.93492 -115.13595 37755 ft 401 kts 246°
2026-04-25 23:03 34.90876 -115.19608 37754 ft 402 kts 246°
2026-04-25 23:04 34.88255 -115.25626 37753 ft 402 kts 246°
2026-04-25 23:04 34.85630 -115.31641 37763 ft 402 kts 246°
2026-04-25 23:05 34.83001 -115.37657 37765 ft 401 kts 246°
2026-04-25 23:05 34.80373 -115.43659 37760 ft 402 kts 246°
2026-04-25 23:06 34.77876 -115.49723 37759 ft 400 kts 249°
2026-04-25 23:06 34.75642 -115.55911 37755 ft 399 kts 249°
2026-04-25 23:07 34.73428 -115.62048 37763 ft 398 kts 249°
2026-04-25 23:07 34.71166 -115.68215 37757 ft 399 kts 249°
2026-04-25 23:08 34.68892 -115.74370 37756 ft 399 kts 249°
2026-04-25 23:08 34.66614 -115.80523 37759 ft 399 kts 249°
2026-04-25 23:09 34.64329 -115.86684 37755 ft 400 kts 248°
2026-04-25 23:09 34.62044 -115.92852 37760 ft 400 kts 249°
2026-04-25 23:10 34.59770 -115.99022 37774 ft 401 kts 248°
2026-04-25 23:10 34.57490 -116.05204 37786 ft 401 kts 248°
2026-04-25 23:11 34.55207 -116.11381 37809 ft 401 kts 248°
2026-04-25 23:11 34.52914 -116.17567 37809 ft 401 kts 248°
2026-04-25 23:12 34.50630 -116.23717 37824 ft 403 kts 248°
2026-04-25 23:12 34.48338 -116.29881 37812 ft 393 kts 248°
2026-04-25 23:13 34.47225 -116.32868 37402 ft 387 kts 248°
2026-04-25 23:13 34.46123 -116.35820 36847 ft 382 kts 248°
2026-04-25 23:13 34.45030 -116.38752 36155 ft 381 kts 248°
2026-04-25 23:13 34.43937 -116.41683 35389 ft 383 kts 247°
2026-04-25 23:14 34.42828 -116.44650 34579 ft 389 kts 247°
2026-04-25 23:14 34.41695 -116.47681 33688 ft 401 kts 246°
2026-04-25 23:14 34.40484 -116.50766 32622 ft 410 kts 245°
2026-04-25 23:14 34.39197 -116.53868 31565 ft 413 kts 244°
2026-04-25 23:15 34.37887 -116.56986 30672 ft 416 kts 244°
2026-04-25 23:15 34.36585 -116.60104 30224 ft 409 kts 244°
2026-04-25 23:15 34.35333 -116.63124 30028 ft 393 kts 244°
2026-04-25 23:15 34.34134 -116.66025 29834 ft 378 kts 244°
2026-04-25 23:16 34.32970 -116.68854 29066 ft 374 kts 245°
2026-04-25 23:16 34.31831 -116.71677 28183 ft 373 kts 245°
2026-04-25 23:16 34.30699 -116.74501 27368 ft 373 kts 245°
2026-04-25 23:16 34.29571 -116.77317 26606 ft 371 kts 245°
2026-04-25 23:17 34.28444 -116.80128 25780 ft 371 kts 245°
2026-04-25 23:17 34.27333 -116.82890 25067 ft 369 kts 245°
2026-04-25 23:17 34.26212 -116.85671 24434 ft 365 kts 245°
2026-04-25 23:17 34.25105 -116.88416 23820 ft 362 kts 245°
2026-04-25 23:18 34.24003 -116.91146 23156 ft 359 kts 245°
2026-04-25 23:18 34.22909 -116.93855 22431 ft 357 kts 245°
2026-04-25 23:18 34.21820 -116.96545 21709 ft 354 kts 245°
2026-04-25 23:18 34.20786 -116.99234 21052 ft 352 kts 249°
2026-04-25 23:19 34.19984 -117.02012 20421 ft 349 kts 252°
2026-04-25 23:19 34.19292 -117.04769 19789 ft 346 kts 252°
2026-04-25 23:19 34.18591 -117.07545 19127 ft 346 kts 252°
2026-04-25 23:19 34.17862 -117.10316 18503 ft 346 kts 251°
2026-04-25 23:20 34.17120 -117.13073 17937 ft 343 kts 251°
2026-04-25 23:20 34.16382 -117.15793 17319 ft 340 kts 251°
2026-04-25 23:20 34.15640 -117.18496 16797 ft 338 kts 250°
2026-04-25 23:20 34.14891 -117.21214 16249 ft 335 kts 251°
2026-04-25 23:21 34.14165 -117.23845 15736 ft 333 kts 251°
2026-04-25 23:21 34.13435 -117.26495 15212 ft 332 kts 251°
2026-04-25 23:21 34.12707 -117.29136 14707 ft 330 kts 251°
2026-04-25 23:21 34.11986 -117.31754 14264 ft 328 kts 251°
2026-04-25 23:22 34.11262 -117.34381 14067 ft 333 kts 250°
2026-04-25 23:22 34.10530 -117.37034 13977 ft 329 kts 251°
2026-04-25 23:22 34.09863 -117.39616 13800 ft 316 kts 252°
2026-04-25 23:23 34.08630 -117.44614 13008 ft 307 kts 252°
2026-04-25 23:23 34.08016 -117.47078 12707 ft 302 kts 252°
2026-04-25 23:23 34.07421 -117.49455 12618 ft 289 kts 252°
2026-04-25 23:23 34.06756 -117.51670 12607 ft 274 kts 246°
2026-04-25 23:24 34.05989 -117.53767 12610 ft 272 kts 245°
2026-04-25 23:24 34.05221 -117.55819 12586 ft 274 kts 245°
2026-04-25 23:24 34.04420 -117.57976 12123 ft 281 kts 245°
2026-04-25 23:24 34.03639 -117.60110 11703 ft 281 kts 246°
2026-04-25 23:25 34.02854 -117.62275 11288 ft 282 kts 246°
2026-04-25 23:25 34.02074 -117.64436 10883 ft 281 kts 246°
2026-04-25 23:25 34.01299 -117.66586 10491 ft 279 kts 246°
2026-04-25 23:25 34.00803 -117.67996 10384 ft 270 kts 249°
2026-04-25 23:26 34.00323 -117.70946 10223 ft 271 kts 262°
2026-04-25 23:26 34.00136 -117.73231 10103 ft 275 kts 263°
2026-04-25 23:26 33.99945 -117.75542 9875 ft 279 kts 263°
2026-04-25 23:26 33.99738 -117.77886 9494 ft 281 kts 262°
2026-04-25 23:27 33.99521 -117.80180 9125 ft 277 kts 262°
2026-04-25 23:27 33.99300 -117.82473 8772 ft 275 kts 262°
2026-04-25 23:27 33.99079 -117.84762 8413 ft 274 kts 262°
2026-04-25 23:27 33.98859 -117.87028 8066 ft 272 kts 262°
2026-04-25 23:28 33.98642 -117.89268 7710 ft 262 kts 262°
2026-04-25 23:28 33.98435 -117.91398 7399 ft 253 kts 262°
2026-04-25 23:28 33.98226 -117.93508 7086 ft 253 kts 262°
2026-04-25 23:28 33.98017 -117.95623 6772 ft 254 kts 262°
2026-04-25 23:29 33.97807 -117.97750 6473 ft 259 kts 263°
2026-04-25 23:29 33.97595 -117.99905 6140 ft 263 kts 262°
2026-04-25 23:29 33.97392 -118.02085 5796 ft 259 kts 263°
2026-04-25 23:29 33.97198 -118.04200 5440 ft 249 kts 262°
2026-04-25 23:30 33.97069 -118.05515 5256 ft 241 kts 262°
2026-04-25 23:30 33.96868 -118.07518 4982 ft 237 kts 261°
2026-04-25 23:30 33.96668 -118.09473 4656 ft 234 kts 261°
2026-04-25 23:30 33.96473 -118.11395 4337 ft 228 kts 262°
2026-04-25 23:31 33.96285 -118.13248 4036 ft 218 kts 261°
2026-04-25 23:31 33.96105 -118.15016 3744 ft 207 kts 262°
2026-04-25 23:31 33.95935 -118.16689 3486 ft 195 kts 262°
2026-04-25 23:31 33.95774 -118.18269 3299 ft 188 kts 261°
2026-04-25 23:32 33.95617 -118.19806 3052 ft 186 kts 261°
2026-04-25 23:32 33.95461 -118.21337 2820 ft 183 kts 261°
2026-04-25 23:32 33.95307 -118.22845 2587 ft 177 kts 262°
2026-04-25 23:32 33.95164 -118.24260 2388 ft 165 kts 261°
2026-04-25 23:33 33.95028 -118.25585 2194 ft 158 kts 261°
2026-04-25 23:33 33.94896 -118.26888 1992 ft 156 kts 261°
2026-04-25 23:33 33.94766 -118.28155 1772 ft 149 kts 262°
2026-04-25 23:33 33.94643 -118.29369 1542 ft 141 kts 262°
2026-04-25 23:34 33.94525 -118.30524 1384 ft 137 kts 262°
2026-04-25 23:34 33.94413 -118.31640 1124 ft 136 kts 262°
2026-04-25 23:34 33.94296 -118.32766 1121 ft 134 kts 261°
2026-04-25 23:34 33.94182 -118.33897 945 ft 138 kts 261°
2026-04-25 23:35 33.94066 -118.35040 756 ft 138 kts 262°
2026-04-25 23:35 33.93953 -118.36196 509 ft 137 kts 263°
2026-04-25 23:35 33.93826 -118.37323 280 ft 134 kts 261°
2026-04-25 23:35 33.93726 -118.38410 135 ft 129 kts 261°
2026-04-25 23:36 33.93616 -118.39435 113 ft 112 kts 267°
2026-04-25 23:36 33.93541 -118.40187 113 ft 68 kts 262°
2026-04-25 23:36 33.93500 -118.40570 117 ft 26 kts 263°
2026-04-25 23:36 33.93481 -118.40791 116 ft 26 kts 264°
2026-04-25 23:37 33.93488 -118.41011 117 ft 23 kts 282°
2026-04-25 23:37 33.93516 -118.41108 112 ft 9 kts 289°
2026-04-25 23:37 33.93540 -118.41190 108 ft 14 kts 291°
2026-04-25 23:37 33.93616 -118.41264 112 ft 15 kts 346°
2026-04-25 23:38 33.93714 -118.41274 111 ft 11 kts
2026-04-25 23:38 33.93756 -118.41243 108 ft 7 kts 58°
2026-04-25 23:38 33.93763 -118.41163 107 ft 11 kts 86°
2026-04-25 23:38 33.93769 -118.41072 106 ft 11 kts 84°
2026-04-25 23:39 33.93777 -118.40982 106 ft 11 kts 83°
2026-04-25 23:39 33.93787 -118.40891 106 ft 11 kts 83°
2026-04-25 23:39 33.93795 -118.40801 107 ft 11 kts 84°
2026-04-25 23:39 33.93835 -118.40736 106 ft 10 kts 13°
2026-04-25 23:40 33.93889 -118.40770 103 ft 9 kts 313°
2026-04-25 23:40 33.93937 -118.40813 103 ft 9 kts 339°
2026-04-25 23:40 33.93998 -118.40823 100 ft 9 kts 353°
2026-04-25 23:40 33.94058 -118.40832 99 ft 9 kts 353°
2026-04-25 23:41 33.94092 -118.40857 101 ft 5 kts 300°
2026-04-25 23:41 33.94094 -118.40881 101 ft 2 kts 267°
2026-04-25 23:41 33.94092 -118.40896 103 ft 3 kts 263°
2026-04-25 23:41 33.94090 -118.40919 101 ft 3 kts 262°
2026-04-25 23:42 33.94088 -118.40932 102 ft 0 kts 263°